Location: Newark
(45.6439°N, 0.5436°E)
Time: 02:10:33
(UTC+00:00)

N. Korean satellite - Pass Details

Date: 25 November 2019
Orbit: 455 x 507 km, 97.2° (Epoch: 13 December)

Event Time Altitude Azimuth Distance (km) Brightness Sun altitude
Rises 17:18:41 0° 180° (S) 2,576 10.5 -10.3°
Reaches altitude 10° 17:20:47 10° 186° (S) 1,704 9.7 -10.7°
Maximum altitude 17:24:21 47° 261° (W) 682 7.8 -11.3°
Drops below altitude 10° 17:27:58 10° 336° (NNW) 1,731 9.4 -11.9°
Sets 17:30:08 0° 343° (NNW) 2,623 10.3 -12.2°
